#timestamp,LO_Frequency,Hit,StdDev 
1540018815.7,286046999.7,N
1540018835.5,286047000.0,N
1540018855.4,286047001.9,N
1540018875.2,286047000.4,N
1540018895.1,286047002.8,N
1540018896.0,286047002.8,N
1540018915.8,286047000.5,N
1540018935.6,286047001.1,N
1540018955.5,286047000.0,N
1540018975.3,286047000.2,N
1540018995.1,286047000.4,N
1540019015.9,286046998.4,N
1540019035.7,286046999.0,N
1540019055.6,286046999.0,N
1540019075.4,286046998.6,N
1540019095.2,286046999.3,N
1540019115.1,286046999.3,N
1540019116.0,286046999.3,N
1540019135.8,286046999.3,N
1540019155.6,286046996.5,N
1540019175.5,286046999.4,N
1540019195.3,286047001.0,N
1540019215.2,286047000.7,N
1540019235.9,286046998.9,N
1540019255.7,286047001.0,N
1540019275.6,286047000.0,N
1540019295.4,286047002.8,N
1540019315.2,286047002.8,N
1540019335.1,286047000.1,N
1540019336.0,286047000.1,N
1540019355.8,286047000.2,N
1540019375.2,286047001.2,N
1540019395.1,286047000.7,N
1540019396.0,286047000.7,N
1540019415.8,286047000.4,N
1540019435.6,286047001.0,N
1540019455.5,286047000.9,N
1540019475.3,286047002.4,N
1540019495.2,286047001.6,N
1540019515.9,286047002.1,N
1540019535.7,286047000.4,N
1540019555.6,286047000.8,N
1540019575.4,286047000.4,N
1540019595.3,286047002.8,N
1540019615.1,286047000.3,N
1540019616.0,286047000.3,N
1540019635.8,286047000.3,N
1540019655.7,286047001.5,N
1540019675.5,286047002.0,N
1540019695.3,286047001.6,N
1540019715.2,286047002.2,N
1540019735.0,286047001.5,N
1540019735.9,286047001.5,N
1540019755.8,286047001.5,N
1540019775.8,286047001.5,N
1540019795.7,286047002.5,N
1540019815.5,286047002.8,Y
1540019835.3,286047000.6,P
1540019855.2,286047000.5,N
1540019875.0,286047000.4,N
1540019875.9,286047000.4,N
1540019895.8,286047000.2,N
1540019915.6,286047000.1,N
1540019935.4,286047002.4,Y
1540019955.3,286047000.4,P
1540019975.1,286047000.0,N
1540019995.9,286046998.3,P
1540020015.0,286046999.3,N
1540020015.9,286046999.3,N
1540020035.8,286046998.1,N
1540020055.6,286046996.7,Y
1540020075.4,286046999.0,P
1540020095.3,286046999.0,P
1540020115.1,286046998.9,P
1540020135.9,286046998.5,Y
1540020155.7,286046999.8,P
1540020175.5,286047002.8,P
1540020195.4,286046999.7,N
1540020215.2,286047002.4,N
1540020235.1,286047001.5,N
1540020236.0,286047001.5,N
1540020255.8,286047001.5,N
1540020275.6,286047001.3,N
1540020295.5,286047001.8,N
1540020315.3,286047002.2,N
1540020335.1,286047002.4,N
1540020355.9,286047000.2,N
1540020375.7,286047002.8,N
1540020395.6,286046999.7,N
1540020415.4,286046999.9,N
1540020435.2,286047001.4,N
1540020455.1,286047001.4,N
1540020456.0,286047001.4,N
1540020475.8,286047002.2,N
1540020495.7,286047001.5,N
1540020515.5,286047002.0,N
1540020535.3,286047002.5,N
1540020555.2,286047000.0,N
1540020575.0,286047002.2,N
1540020575.9,286047002.2,N
1540020595.8,286047002.2,N
1540020615.6,286047002.2,N
1540020635.4,286047000.2,N
1540020655.3,286047000.4,N
1540020675.1,286046999.8,N
1540020695.9,286047002.0,N
1540020715.7,286047002.3,N
1540020735.5,286047001.3,N
1540020755.4,286047003.0,Y
1540020775.2,286047001.8,P
1540020795.1,286047001.9,P
1540020796.0,286047001.9,P
1540020815.8,286047002.0,Y
1540020835.6,286047000.2,P
1540020855.5,286046998.9,N
1540020875.3,286046998.9,N
1540020895.2,286046996.7,N
1540020915.9,286046997.9,N
1540020935.7,286046997.0,N
1540020955.6,286046996.3,N
1540020975.4,286046994.6,Y
1540020995.3,286046994.9,P
1540021015.1,286046995.8,N
1540021016.0,286046995.8,N
1540021035.8,286046996.1,N
1540021055.7,286046996.3,Y
1540021075.5,286046998.7,P
1540021095.3,286046998.6,N
1540021115.2,286047000.0,N
1540021135.0,286047003.9,N
1540021135.9,286047003.9,N
1540021155.8,286047004.2,N
1540021175.6,286047002.5,N
1540021195.4,286047003.9,N
1540021215.3,286047004.1,N
1540021235.1,286047003.2,N
1540021255.8,286047003.3,N
1540021275.7,286047003.6,N
1540021295.5,286047003.2,N
1540021315.4,286047005.4,N
1540021335.2,286047004.6,N
1540021355.0,286047003.1,N
1540021355.9,286047003.1,N
1540021375.8,286047003.8,N
1540021395.6,286047003.5,N
1540021415.4,286047003.2,N
1540021435.3,286047003.4,N
1540021455.1,286047003.5,N
1540021475.9,286047003.6,N
1540021495.7,286047004.1,N
1540021515.5,286047004.3,N
1540021535.4,286047003.6,N
1540021555.2,286047004.3,N
1540021575.0,286047002.0,N
1540021575.9,286047002.0,N
1540021595.8,286047004.3,N
1540021615.6,286047001.5,N
1540021635.5,286047002.7,N
1540021655.3,286047001.4,N
1540021675.1,286047002.1,N
1540021695.9,286047004.4,Y
1540021715.7,286046999.4,P
1540021735.5,286046999.6,N
1540021755.5,286046996.9,N
1540021775.3,286046998.6,N
1540021795.2,286046999.5,N
1540021815.9,286046999.0,N
1540021835.7,286046998.8,N
1540021855.6,286046999.6,N
1540021875.4,286046996.5,N
1540021895.2,286046996.8,N
1540021915.1,286046997.0,N
1540021916.0,286046997.0,N
1540021935.8,286046999.5,N
1540021955.7,286046998.6,N
1540021975.5,286046998.6,N
1540021995.3,286047000.8,N
1540022015.2,286046998.9,N
1540022035.0,286046998.4,N
1540022035.9,286046998.4,N
1540022055.7,286046998.9,N
1540022075.6,286046996.8,N
1540022095.4,286046998.3,N
1540022115.3,286046998.5,N
1540022135.1,286046999.1,N
1540022136.0,286046999.1,N
1540022155.8,286046998.9,N
1540022175.7,286046997.2,N
1540022195.5,286046999.2,N
1540022215.3,286046997.5,N
1540022235.2,286046997.3,N
1540022255.0,286046996.7,Y
1540022255.9,286046996.7,P
1540022275.8,286046998.4,N
1540022295.6,286046998.5,N
1540022315.4,286047000.8,N
1540022335.3,286046998.7,N
1540022355.1,286047001.2,N
1540022375.9,286046998.3,N
1540022395.7,286046998.7,N
